STARLINK-32341, 61639

Orbit data source: Space-Track

STARLINK-32341, 61639 is a payload satellite owned by SpaceX/Seattle (US) in LEO that was launched on Wed, 23 Oct 2024 UTC via an FALCON 9 launch vehicle from the Air Force Eastern Test Range (AFETR). Payload-class satellites include a variety of spacecraft equipped with specific instruments for various scientific and technological missions. These include communications satellites like Starlink; space stations such as the ISS; scientific satellites like the Hubble; Earth observation satellites from companies like Planet Labs, Umbra, and HawkEye 360; GPS; miniature CubeSats for education and research; and military/defense satellites.

Loading next visibility...
Identifier
61639, 2024-191U
Orbit
LEO
Country
Flag of USUS
Related business
Manufacturer
SpaceX/Seattle
Mission
Operational Commercial Communications
Bus & Motor
STARLINK V2M, Unknown motor
Mass
730 kg wet, ~700 kg dry
Launch date (UTC)
2024-10-23 (1 year ago)
Launch vehicle
FALCON 9
Launch site
Air Force Eastern Test Range (AFETR)
Object type
Payload
Rocket body
Debris
Shape & HBR
Box + 2 Pan, 17.7 m
Radar Cross Section
33.884 m², Large (>1 m²)

Expand to show TLE details & history
Last TLE update: 11 hours ago

TLE from 11 hours ago
0 STARLINK-32341
1 61639U 24191U   26062.72611876 -.00000990  00000-0 -26485-4 0  9995
2 61639  42.9984 188.2415 0000703 281.0960  78.9812 15.27579409 76623
Epoch: 2026-03-03T17:25Z
TLE epoch observation values (Epoch: 2026-03-03T17:25:36.660Z)
Latitude
-0.00007°
Longitude
125.33763°
Altitude
482.734 km
Speed
7.626 km/s
True Right ascension
12h 32m 57s
True Declination
0° 00' 00"
Sunlit
Object was in full shadow at epoch
Visualization orbit readout
Latitude
Unknown
Longitude
Unknown
Altitude
Unknown
Speed
Unknown
Apparent Right ascension
Unknown
Apparent Declination
Unknown
Sunlit
N/A
Visualization observer readout
Local Sidereal Time
08:01:33
Azimuth
Unknown
Elevation
Unknown
Doppler factor
Unknown
Orbital elements
Apogee altitude
485.479 km
Perigee altitude
484.514 km
Semi-major axis
6,863.133 km
Eccentricity
0.00007
Inclination
42.9984°
RAAN
188.2415°
Arg. of periapsis
281.096°
True anomaly
78.98911°
Mean anomaly
78.9812°
Eccentric anomaly
78.98515°
Mean motion
3.81733 °/min
Orbital period
94.31 mins
BSTAR
-0.000026485
Loading maneuver chart data...
Computing Atmospheric mass density...
Loading historical data...
Loading historical data...
Loading historical data...
Loading historical data...
Loading historical data...
Loading historical data...
Loading historical data...

Documentation

Showing up to 5 results
|